TimeEDT,TemperatureF,Dew PointF,Humidity,Sea Level PressureIn,VisibilityMPH,Wind Direction,Wind SpeedMPH,Gust SpeedMPH,PrecipitationIn,Events,Conditions,WindDirDegrees,DateUTC
12:53 AM,60.1,57.0,90,30.04,10.0,Calm,Calm,-,N/A,,Overcast,0,2013-10-01 04:53:00
1:53 AM,60.1,57.0,90,30.04,10.0,SSE,3.5,-,N/A,,Mostly Cloudy,160,2013-10-01 05:53:00
2:53 AM,60.1,57.0,90,30.04,10.0,Calm,Calm,-,N/A,,Clear,0,2013-10-01 06:53:00
3:53 AM,55.9,55.0,97,30.03,7.0,Calm,Calm,-,N/A,,Partly Cloudy,0,2013-10-01 07:53:00
4:53 AM,57.9,55.9,93,30.04,9.0,Calm,Calm,-,N/A,,Overcast,0,2013-10-01 08:53:00
5:53 AM,57.0,55.0,93,30.05,7.0,Calm,Calm,-,N/A,,Partly Cloudy,0,2013-10-01 09:53:00
6:53 AM,57.9,57.0,97,30.06,10.0,Calm,Calm,-,N/A,,Overcast,0,2013-10-01 10:53:00
7:53 AM,57.9,57.0,97,30.07,10.0,Calm,Calm,-,N/A,,Overcast,0,2013-10-01 11:53:00
8:53 AM,62.1,59.0,90,30.09,10.0,Calm,Calm,-,N/A,,Overcast,0,2013-10-01 12:53:00
9:53 AM,66.0,57.9,75,30.09,10.0,West,3.5,-,N/A,,Partly Cloudy,270,2013-10-01 13:53:00
10:53 AM,73.0,59.0,61,30.09,10.0,Calm,Calm,-,N/A,,Clear,0,2013-10-01 14:53:00
11:53 AM,77.0,57.9,52,30.07,10.0,Calm,Calm,-,N/A,,Clear,0,2013-10-01 15:53:00
12:53 PM,79.0,55.0,44,30.06,10.0,Variable,6.9,-,N/A,,Clear,0,2013-10-01 16:53:00
1:53 PM,80.1,54.0,40,30.03,10.0,NNW,3.5,-,N/A,,Mostly Cloudy,340,2013-10-01 17:53:00
2:53 PM,79.0,55.0,44,30.02,10.0,NNW,3.5,-,N/A,,Mostly Cloudy,340,2013-10-01 18:53:00
3:53 PM,78.1,54.0,43,30.01,10.0,Calm,Calm,-,N/A,,Mostly Cloudy,0,2013-10-01 19:53:00
4:53 PM,80.1,55.9,43,30.00,10.0,Calm,Calm,-,N/A,,Mostly Cloudy,0,2013-10-01 20:53:00
5:53 PM,78.1,55.0,45,30.01,10.0,SW,3.5,-,N/A,,Overcast,220,2013-10-01 21:53:00
6:53 PM,73.9,57.0,55,30.01,10.0,SSW,6.9,-,N/A,,Partly Cloudy,200,2013-10-01 22:53:00
7:53 PM,70.0,59.0,68,30.02,10.0,Calm,Calm,-,N/A,,Clear,0,2013-10-01 23:53:00
8:53 PM,64.9,60.1,84,30.04,10.0,Calm,Calm,-,N/A,,Clear,0,2013-10-02 00:53:00
9:53 PM,64.9,61.0,87,30.04,10.0,West,3.5,-,N/A,,Clear,260,2013-10-02 01:53:00
10:53 PM,61.0,59.0,93,30.05,10.0,Calm,Calm,-,N/A,,Clear,0,2013-10-02 02:53:00
11:53 PM,60.1,55.9,86,30.05,10.0,Calm,Calm,-,N/A,,Clear,0,2013-10-02 03:53:00